WA7SB-7 Weather Reports


Display with metric or nautical units.
time (UTC)temp
F
wind
direction
speed
MPH
gust
MPH
rain 1hr
in
rain 24hr
in
rain mn
in
humidity
%
barometer
mb
20260506035025 55 335 0.0 0.0 0.00 0.01 0.01 87 1017.7
20260506034926 55 335 0.0 0.0 0.00 0.01 0.01 87 1017.7
20260506034528 55 335 0.0 0.0 0.00 0.01 0.01 87 1017.6
20260506034026 55 335 0.0 0.0 0.00 0.01 0.01 87 1017.4
20260506033933 55 335 0.0 0.0 0.00 0.01 0.01 87 1017.5
20260506033532 55 335 0.0 0.0 0.00 0.01 0.01 87 1017.5
20260506033416 55 335 0.0 0.0 0.00 0.01 0.01 87 1017.4
20260506033032 55 335 0.0 0.0 0.00 0.01 0.01 87 1017.3
20260506032918 55 335 0.0 0.0 0.00 0.01 0.01 87 1017.3
20260506032532 55 335 0.0 0.0 0.00 0.01 0.01 87 1017.4
20260506032413 55 335 0.0 0.0 0.00 0.01 0.01 87 1017.4
20260506032014 55 335 0.0 0.0 0.00 0.01 0.01 87 1017.4
20260506031915 55 335 0.0 0.0 0.00 0.01 0.01 87 1017.4
20260506031514 55 145 0.0 0.0 0.00 0.01 0.01 87 1017.3
20260506031416 56 64 0.0 0.0 0.00 0.01 0.01 87 1017.3
20260506031017 56 64 0.0 0.0 0.00 0.01 0.01 87 1017.3
20260506030916 56 270 0.0 0.0 0.00 0.01 0.01 87 1017.3
20260506030515 56 270 0.0 0.0 0.00 0.01 0.01 87 1017.3
20260506030416 56 270 0.0 0.0 0.00 0.01 0.01 87 1017.2
20260506030025 56 270 0.0 0.0 0.00 0.01 0.01 87 1017.2
20260506025928 56 270 0.0 0.0 0.00 0.01 0.01 86 1017.2
20260506025526 56 272 0.0 0.0 0.00 0.01 0.01 86 1017.3
20260506025428 56 272 0.0 0.0 0.00 0.01 0.01 86 1017.2
20260506025027 56 271 0.0 0.0 0.00 0.01 0.01 86 1017.2
20260506024929 56 271 0.0 0.0 0.00 0.01 0.01 86 1017.2
20260506024529 56 268 0.0 0.0 0.00 0.01 0.01 86 1017.2
20260506024430 56 278 0.0 0.0 0.00 0.01 0.01 86 1017.1
20260506024028 56 180 0.0 0.0 0.00 0.01 0.01 86 1017.1
20260506023912 56 163 0.0 0.0 0.00 0.01 0.01 86 1017.2
20260506023528 56 307 0.0 0.0 0.00 0.01 0.01 87 1017.2
20260506023412 56 308 0.0 0.0 0.00 0.01 0.01 87 1017.1
20260506023033 56 309 0.0 0.0 0.00 0.01 0.01 86 1017.2
20260506022919 56 309 0.0 0.0 0.00 0.01 0.01 86 1017.2
20260506022516 56 49 0.0 0.0 0.00 0.01 0.01 86 1017.2
20260506022420 56 49 0.0 0.0 0.00 0.01 0.01 86 1017.2
20260506022014 56 149 0.0 0.0 0.00 0.01 0.01 87 1017.2
20260506021935 57 267 0.0 0.0 0.00 0.01 0.01 87 1017.2
20260506021532 56 272 0.0 0.0 0.00 0.01 0.01 86 1017.2
20260506021415 57 272 0.0 0.0 0.00 0.01 0.01 86 1017.2
20260506021016 57 280 0.0 0.0 0.00 0.01 0.01 86 1017.2
20260506020916 57 277 0.0 0.0 0.00 0.01 0.01 86 1017.2
20260506020516 57 261 0.0 0.0 0.00 0.01 0.01 86 1017.2
20260506020417 57 339 0.0 0.0 0.00 0.01 0.01 86 1017.1
20260506020026 57 301 0.0 0.0 0.00 0.01 0.01 86 1017.0
20260506015928 57 301 0.0 0.0 0.00 0.01 0.01 85 1017.1
20260506015527 57 273 0.0 0.0 0.00 0.01 0.01 85 1017.1
20260506015428 57 251 0.0 0.0 0.00 0.01 0.01 85 1017.1
20260506015027 57 291 0.0 0.0 0.00 0.01 0.01 85 1017.1
20260506014929 57 297 0.0 0.0 0.00 0.01 0.01 85 1017.0
20260506014531 58 257 0.0 0.0 0.00 0.01 0.01 85 1017.1
20260506014430 58 257 0.0 0.0 0.00 0.01 0.01 85 1017.1
20260506014030 58 325 0.0 0.0 0.00 0.01 0.01 85 1017.1
20260506013913 58 58 0.0 0.0 0.00 0.01 0.01 86 1017.1
20260506013517 58 289 0.0 0.0 0.00 0.01 0.01 86 1017.1
20260506013417 58 291 0.0 0.0 0.00 0.01 0.01 85 1017.2
20260506013015 58 291 0.0 0.0 0.00 0.01 0.01 85 1017.1
20260506012937 58 295 0.0 0.0 0.00 0.01 0.01 85 1017.1
20260506012532 58 285 0.0 0.0 0.00 0.01 0.01 85 1017.0
20260506012436 58 285 0.0 0.0 0.00 0.01 0.01 85 1017.1
20260506012033 58 285 0.0 0.0 0.00 0.01 0.01 85 1017.1
20260506011919 58 275 0.0 0.0 0.00 0.01 0.01 85 1017.1
20260506011515 58 275 0.0 0.0 0.00 0.01 0.01 85 1017.1
20260506011417 58 275 0.0 0.0 0.00 0.01 0.01 85 1017.1
20260506011016 58 24 0.0 0.0 0.00 0.01 0.01 85 1017.0
20260506010916 58 276 0.0 0.0 0.00 0.01 0.01 85 1017.1
20260506010516 58 282 0.0 0.0 0.00 0.01 0.01 85 1017.0
20260506010414 58 261 0.0 0.0 0.00 0.01 0.01 85 1017.1
20260506010021 58 69 0.0 0.0 0.00 0.01 0.01 84 1017.0
20260506005921 58 125 0.0 0.0 0.00 0.01 0.01 84 1017.1
20260506005521 58 143 0.0 0.0 0.00 0.01 0.01 84 1017.1
20260506005423 58 113 0.0 0.0 0.00 0.01 0.01 84 1017.1
20260506005024 58 98 0.0 0.0 0.00 0.01 0.01 84 1017.2
20260506004925 58 240 0.0 0.0 0.00 0.01 0.01 84 1017.1
20260506004524 58 169 0.0 0.0 0.00 0.01 0.01 84 1017.1
20260506004424 58 148 0.0 0.0 0.00 0.01 0.01 84 1017.1
20260506004023 58 279 0.0 0.0 0.00 0.01 0.01 83 1017.1
20260506003923 59 282 0.0 0.0 0.00 0.01 0.01 83 1017.1
20260506003526 59 83 0.0 0.0 0.00 0.01 0.01 83 1017.1
20260506003427 59 83 0.0 0.0 0.00 0.01 0.01 83 1017.1
20260506003022 59 311 0.0 0.0 0.00 0.01 0.01 82 1017.1
20260506002926 59 192 0.0 0.0 0.00 0.01 0.01 82 1017.2
20260506002524 59 303 0.0 0.0 0.00 0.01 0.01 83 1017.2
20260506002429 59 262 0.0 0.0 0.00 0.01 0.01 83 1017.2
20260506002025 59 262 0.0 0.0 0.00 0.01 0.01 82 1017.1
20260506001926 59 262 0.0 0.0 0.00 0.01 0.01 83 1017.2
20260506001526 59 256 0.0 0.0 0.00 0.01 0.01 83 1017.1
20260506001427 59 292 0.0 0.0 0.00 0.01 0.01 83 1017.1
20260506001024 59 292 0.0 0.0 0.00 0.01 0.01 82 1017.2
20260506000924 59 280 0.0 0.0 0.00 0.01 0.01 83 1017.2
20260506000525 59 273 0.0 0.0 0.00 0.01 0.01 82 1017.2
20260506000425 59 271 0.0 0.0 0.00 0.01 0.01 82 1017.1
20260506000015 59 289 0.0 0.0 0.00 0.01 0.01 82 1017.2
20260505235935 59 288 0.0 0.0 0.00 0.01 0.01 82 1017.2
20260505235530 59 290 0.0 0.0 0.00 0.01 0.01 81 1017.2
20260505235430 59 271 0.0 0.0 0.00 0.01 0.01 82 1017.2
20260505235031 60 288 0.0 0.0 0.00 0.01 0.01 81 1017.2
20260505234914 60 282 0.0 0.0 0.00 0.01 0.01 82 1017.2
20260505234514 60 282 0.0 0.0 0.00 0.01 0.01 82 1017.2
20260505234436 60 282 0.0 0.0 0.00 0.01 0.01 82 1017.2
20260505234033 60 278 0.0 0.0 0.00 0.01 0.01 82 1017.2
20260505233914 60 285 0.0 0.0 0.00 0.01 0.01 82 1017.2
20260505233516 59 287 0.0 0.0 0.00 0.01 0.01 83 1017.2
20260505233417 59 287 0.0 0.0 0.00 0.01 0.01 83 1017.3
20260505233016 59 287 0.0 0.0 0.00 0.01 0.01 82 1017.2
20260505232918 59 287 0.0 0.0 0.00 0.01 0.01 82 1017.3
20260505232515 59 229 0.0 0.0 0.00 0.01 0.01 83 1017.2
20260505232420 59 236 0.0 0.0 0.00 0.01 0.01 83 1017.2
20260505232018 59 262 0.0 0.0 0.00 0.01 0.01 83 1017.3
20260505231923 59 255 0.0 0.0 0.00 0.01 0.01 83 1017.3
20260505231518 59 301 0.0 0.0 0.00 0.01 0.01 83 1017.3
20260505231417 59 278 0.0 0.0 0.00 0.01 0.01 83 1017.3
20260505231014 59 281 0.0 0.0 0.00 0.01 0.01 83 1017.3
20260505230915 59 246 0.0 0.0 0.00 0.01 0.01 83 1017.2
20260505230517 59 314 0.0 0.0 0.00 0.01 0.01 83 1017.3
20260505230416 59 250 0.0 0.0 0.00 0.01 0.01 83 1017.3
20260505230026 59 297 0.0 0.0 0.00 0.01 0.01 83 1017.2
20260505225928 59 296 0.0 0.0 0.00 0.01 0.01 83 1017.2
20260505225528 59 304 0.0 0.0 0.00 0.01 0.01 83 1017.2
20260505225430 59 303 0.0 0.0 0.00 0.01 0.01 83 1017.2
20260505225030 59 300 0.0 0.0 0.00 0.01 0.01 83 1017.3
20260505224931 59 288 0.0 0.0 0.00 0.01 0.01 83 1017.3
20260505224533 59 291 0.0 0.0 0.00 0.01 0.01 84 1017.4
20260505224433 59 285 0.0 0.0 0.00 0.01 0.01 84 1017.4
20260505224033 58 278 0.0 0.0 0.00 0.01 0.01 84 1017.4
20260505223914 58 99 0.0 0.0 0.00 0.01 0.01 83 1017.4
20260505223518 58 293 0.0 0.0 0.00 0.01 0.01 83 1017.4
20260505223418 58 304 0.0 0.0 0.00 0.01 0.01 83 1017.4
20260505223017 58 264 0.0 0.0 0.00 0.01 0.01 83 1017.5
20260505222917 58 290 0.0 0.0 0.00 0.01 0.01 84 1017.5
20260505222518 58 342 0.0 0.0 0.00 0.01 0.01 84 1017.4
20260505222419 58 16 0.0 0.0 0.00 0.01 0.01 83 1017.5
20260505222015 58 292 0.0 0.0 0.00 0.01 0.01 82 1017.5
20260505221920 58 303 0.0 0.0 0.00 0.01 0.01 82 1017.5
20260505221516 59 296 0.0 0.0 0.00 0.01 0.01 82 1017.6
20260505221420 59 297 0.0 0.0 0.00 0.01 0.01 82 1017.5
20260505221015 59 258 0.0 0.0 0.00 0.01 0.01 83 1017.5
20260505220918 59 213 0.0 0.0 0.00 0.01 0.01 83 1017.5
20260505220518 59 281 0.0 0.0 0.00 0.01 0.01 83 1017.5
20260505220417 59 290 0.0 0.0 0.00 0.01 0.01 83 1017.5
20260505220025 59 276 0.0 0.0 0.00 0.01 0.01 84 1017.6
20260505215925 58 276 0.0 0.0 0.00 0.01 0.01 83 1017.6
20260505215525 58 218 0.0 0.0 0.00 0.01 0.01 83 1017.7
20260505215423 58 309 0.0 0.0 0.00 0.01 0.01 83 1017.6
20260505215022 58 294 0.0 0.0 0.00 0.01 0.01 83 1017.6
20260505214923 58 298 0.0 0.0 0.00 0.01 0.01 83 1017.7
20260505214520 58 319 0.0 0.0 0.00 0.01 0.01 84 1017.7
20260505214421 58 319 0.0 0.0 0.00 0.01 0.01 84 1017.7
20260505214020 58 134 0.0 0.0 0.00 0.01 0.01 84 1017.6
20260505213922 58 129 0.0 0.0 0.00 0.01 0.01 84 1017.7
20260505213524 58 149 0.0 0.0 0.00 0.01 0.01 85 1017.7
20260505213423 58 149 0.0 0.0 0.00 0.01 0.01 84 1017.8
20260505213021 58 55 0.0 0.0 0.00 0.01 0.01 84 1017.7
20260505212922 58 78 0.0 0.0 0.00 0.01 0.01 84 1017.7
20260505212520 58 58 0.0 0.0 0.00 0.01 0.01 84 1017.8
20260505212425 58 333 0.0 0.0 0.00 0.01 0.01 84 1017.7
20260505212018 58 50 0.0 0.0 0.00 0.01 0.01 84 1017.7
20260505211924 58 44 0.0 0.0 0.00 0.01 0.01 84 1017.7
20260505211522 58 277 0.0 0.0 0.00 0.01 0.01 84 1017.7
20260505211423 58 279 0.0 0.0 0.00 0.01 0.01 84 1017.7
20260505211023 58 282 0.0 0.0 0.00 0.01 0.01 84 1017.6
20260505210924 58 265 0.0 0.0 0.00 0.01 0.01 84 1017.7
20260505210525 58 63 0.0 0.0 0.00 0.01 0.01 84 1017.6
20260505210425 58 66 0.0 0.0 0.00 0.01 0.01 84 1017.7
20260505210016 58 288 0.0 0.0 0.00 0.01 0.01 84 1017.7
20260505205918 58 289 0.0 0.0 0.00 0.01 0.01 84 1017.7
20260505205518 58 285 0.0 0.0 0.00 0.01 0.01 84 1017.7
20260505205419 58 298 0.0 0.0 0.00 0.01 0.01 83 1017.7
20260505205020 58 75 0.0 0.0 0.00 0.01 0.01 83 1017.7
20260505204921 58 293 0.0 0.0 0.00 0.01 0.01 83 1017.7
20260505204519 58 314 0.0 0.0 0.00 0.01 0.01 83 1017.7
20260505204420 58 316 0.0 0.0 0.00 0.01 0.01 84 1017.7
20260505204019 58 328 0.0 0.0 0.00 0.01 0.01 84 1017.7
20260505203920 58 89 0.0 0.0 0.00 0.01 0.01 84 1017.6
20260505203522 58 194 0.0 0.0 0.00 0.01 0.01 84 1017.6
20260505203423 58 98 0.0 0.0 0.00 0.01 0.01 84 1017.6
20260505203023 58 10 0.0 0.0 0.00 0.01 0.01 83 1017.6
20260505202925 58 270 0.0 0.0 0.00 0.01 0.01 83 1017.6
20260505202527 58 289 0.0 0.0 0.00 0.01 0.01 84 1017.6
20260505202428 58 299 0.0 0.0 0.00 0.01 0.01 84 1017.6
20260505202024 58 241 0.0 0.0 0.00 0.01 0.01 84 1017.6
20260505201930 58 241 0.0 0.0 0.00 0.01 0.01 84 1017.7
20260505201525 58 200 0.0 0.0 0.00 0.01 0.01 85 1017.8
20260505201430 58 129 0.0 0.0 0.00 0.01 0.01 85 1017.8
20260505201027 57 70 0.0 0.0 0.00 0.01 0.01 84 1017.8
20260505200928 58 90 0.0 0.0 0.00 0.01 0.01 84 1017.8
20260505200531 57 272 0.0 0.0 0.00 0.01 0.01 84 1017.8
20260505200412 57 272 0.0 0.0 0.00 0.01 0.01 84 1017.8
20260505200020 57 276 0.0 0.0 0.00 0.01 0.01 84 1017.7
20260505195920 57 276 0.0 0.0 0.00 0.01 0.01 84 1017.7
20260505195517 57 282 0.0 0.0 0.00 0.01 0.01 83 1017.7
20260505195437 57 260 0.0 0.0 0.00 0.01 0.01 83 1017.7
20260505195033 58 207 0.0 0.0 0.00 0.01 0.01 84 1017.7
20260505194915 57 258 0.0 0.0 0.00 0.01 0.01 84 1017.7
20260505194515 57 75 0.0 0.0 0.00 0.01 0.01 84 1017.8
20260505194417 57 350 0.0 0.0 0.00 0.01 0.01 84 1017.8
20260505194016 57 287 0.0 0.0 0.00 0.01 0.01 83 1017.9
20260505193919 57 285 0.0 0.0 0.00 0.01 0.01 83 1017.9
20260505193518 58 278 0.0 0.0 0.00 0.01 0.01 84 1017.9
20260505193418 58 293 0.0 0.0 0.00 0.01 0.01 84 1017.9
20260505193015 58 284 0.0 0.0 0.00 0.01 0.01 84 1017.9
20260505192916 58 285 0.0 0.0 0.00 0.01 0.01 84 1017.8
20260505192516 58 250 0.0 0.0 0.00 0.01 0.01 83 1017.8
20260505192417 58 281 0.0 0.0 0.00 0.01 0.01 83 1017.8
20260505192017 58 280 0.0 0.0 0.00 0.01 0.01 83 1017.7
20260505191920 58 286 0.0 0.0 0.00 0.01 0.01 84 1017.7
20260505191514 58 269 0.0 0.0 0.00 0.01 0.01 84 1017.6
20260505191438 58 311 0.0 0.0 0.00 0.01 0.01 84 1017.6
20260505191032 58 292 0.0 0.0 0.00 0.01 0.01 85 1017.6
20260505190918 58 292 0.0 0.0 0.00 0.01 0.01 85 1017.6
20260505190515 58 138 0.0 0.0 0.00 0.01 0.01 85 1017.5
20260505190415 57 138 0.0 0.0 0.00 0.01 0.01 85 1017.5
20260505190024 57 129 0.0 0.0 0.00 0.01 0.01 85 1017.5
20260505185924 57 134 0.0 0.0 0.00 0.01 0.01 85 1017.4
20260505185524 57 136 0.0 0.0 0.00 0.01 0.01 85 1017.4
20260505185426 57 94 0.0 0.0 0.00 0.01 0.01 85 1017.4
20260505185025 57 283 0.0 0.0 0.00 0.01 0.01 86 1017.3
20260505184926 57 279 0.0 0.0 0.00 0.01 0.01 86 1017.3
20260505184527 57 278 0.0 0.0 0.00 0.01 0.01 86 1017.4
20260505184427 57 283 0.0 0.0 0.00 0.01 0.01 86 1017.4
20260505184025 57 339 0.0 0.0 0.00 0.01 0.01 86 1017.4
20260505183925 57 297 0.0 0.0 0.00 0.01 0.01 86 1017.4
20260505183525 57 123 0.0 0.0 0.00 0.01 0.01 87 1017.5
20260505183423 56 123 0.0 0.0 0.00 0.01 0.01 87 1017.5
20260505183021 56 124 0.0 0.0 0.00 0.01 0.01 86 1017.4
20260505182923 56 124 0.0 0.0 0.00 0.01 0.01 86 1017.3
20260505182522 56 297 0.0 0.0 0.00 0.01 0.01 87 1017.3
20260505182423 56 297 0.0 0.0 0.00 0.01 0.01 87 1017.4
20260505182018 56 306 0.0 0.0 0.00 0.01 0.01 87 1017.3
20260505181921 56 306 0.0 0.0 0.00 0.01 0.01 87 1017.4
20260505181517 56 112 0.0 0.0 0.00 0.01 0.01 87 1017.2
20260505181421 56 103 0.0 0.0 0.00 0.01 0.01 87 1017.3
20260505181015 56 299 0.0 0.0 0.00 0.01 0.01 87 1017.3
20260505180916 56 278 0.0 0.0 0.00 0.01 0.01 87 1017.2
20260505180516 56 283 0.0 0.0 0.00 0.01 0.01 87 1017.2
20260505180415 56 283 0.0 0.0 0.00 0.01 0.01 87 1017.1
20260505180024 56 18 0.0 0.0 0.00 0.01 0.01 88 1017.1
20260505175926 56 356 0.0 0.0 0.00 0.01 0.01 88 1017.1
20260505175526 56 350 0.0 0.0 0.00 0.01 0.01 88 1017.1
20260505175447 56 335 0.0 0.0 0.00 0.01 0.01 88 1017.0
20260505175031 56 295 0.0 0.0 0.00 0.01 0.01 88 1017.0
20260505174932 56 310 0.0 0.0 0.00 0.01 0.01 88 1017.0
20260505174531 56 98 0.0 0.0 0.00 0.01 0.01 88 1017.0
20260505174431 56 122 0.0 0.0 0.00 0.01 0.01 88 1017.1
20260505174032 56 296 0.0 0.0 0.00 0.01 0.01 89 1017.0
20260505173912 55 139 0.0 0.0 0.00 0.01 0.01 88 1017.0
20260505173514 56 95 0.0 0.0 0.00 0.01 0.01 89 1017.0
20260505173414 56 208 0.0 0.0 0.00 0.01 0.01 89 1017.1
20260505173014 56 113 0.0 0.0 0.00 0.01 0.01 89 1017.0
20260505172934 56 343 0.0 0.0 0.00 0.01 0.01 89 1017.0
20260505172529 56 283 0.0 0.0 0.00 0.01 0.01 89 1017.0
20260505172432 56 301 0.0 0.0 0.00 0.01 0.01 89 1016.9
20260505172027 55 311 0.0 0.0 0.00 0.01 0.01 89 1016.9
20260505171912 55 139 0.0 0.0 0.00 0.01 0.01 89 1016.9
20260505171533 55 89 0.0 0.0 0.00 0.01 0.01 89 1016.9
20260505171433 55 89 0.0 0.0 0.00 0.01 0.01 89 1017.0
20260505171032 55 80 0.0 0.0 0.00 0.01 0.01 89 1016.9
20260505170933 55 96 0.0 0.0 0.00 0.01 0.01 90 1016.9
20260505170532 55 278 0.0 0.0 0.00 0.01 0.01 90 1016.9
20260505170433 55 332 0.0 0.0 0.00 0.01 0.01 90 1016.8
20260505170030 55 51 0.0 0.0 0.00 0.01 0.01 90 1016.8
20260505165926 55 51 0.0 0.0 0.00 0.01 0.01 90 1016.8
20260505165522 55 235 0.0 0.0 0.00 0.01 0.01 90 1016.7
20260505165423 55 284 0.0 0.0 0.00 0.01 0.01 90 1016.7
20260505165015 55 65 0.0 0.0 0.00 0.01 0.01 90 1016.7
20260505164917 55 65 0.0 0.0 0.00 0.01 0.01 90 1016.6
20260505164517 55 104 0.0 0.0 0.00 0.01 0.01 91 1016.6
20260505164418 55 279 0.0 0.0 0.00 0.01 0.01 91 1016.6
20260505164017 55 88 0.0 0.0 0.00 0.01 0.01 91 1016.6
20260505163937 55 88 0.0 0.0 0.00 0.01 0.01 91 1016.6
20260505163534 55 97 0.0 0.0 0.00 0.01 0.01 91 1016.6
20260505163419 55 296 0.0 0.0 0.00 0.01 0.01 92 1016.5
20260505163015 54 195 0.0 0.0 0.00 0.01 0.01 92 1016.6
20260505162921 54 195 0.0 0.0 0.00 0.01 0.01 92 1016.6
20260505162516 54 306 0.0 0.0 0.00 0.01 0.01 92 1016.6
20260505162416 54 338 0.0 0.0 0.00 0.01 0.01 92 1016.5
20260505162015 54 297 0.0 0.0 0.00 0.01 0.01 92 1016.5
20260505161914 54 291 0.0 0.0 0.00 0.01 0.01 92 1016.5
20260505161514 54 293 0.0 0.0 0.00 0.01 0.01 92 1016.5
20260505161414 54 293 0.0 0.0 0.00 0.01 0.01 92 1016.5
20260505161015 54 84 0.0 0.0 0.00 0.01 0.01 92 1016.6
20260505160916 54 84 0.0 0.0 0.00 0.01 0.01 92 1016.6
20260505160518 54 193 0.0 0.0 0.00 0.01 0.01 92 1016.6
20260505160416 54 193 0.0 0.0 0.00 0.01 0.01 92 1016.5
20260505153027 54 94 0.0 0.0 0.00 0.01 0.01 93 1016.5
20260505152926 54 273 0.0 0.0 0.00 0.01 0.01 93 1016.5
20260505152525 55 74 0.0 0.0 0.00 0.01 0.01 93 1016.4
20260505152426 54 288 0.0 0.0 0.00 0.01 0.01 93 1016.4
20260505152025 54 300 0.0 0.0 0.00 0.01 0.01 93 1016.5
20260505151927 54 300 0.0 0.0 0.00 0.01 0.01 93 1016.5
20260505151527 54 305 0.0 0.0 0.00 0.01 0.01 93 1016.5
20260505151427 54 306 0.0 0.0 0.00 0.01 0.01 93 1016.5
20260505151028 54 312 0.0 0.0 0.00 0.01 0.01 93 1016.5
20260505150930 54 89 0.0 0.0 0.00 0.01 0.01 93 1016.5
20260505150532 54 109 0.0 0.0 0.00 0.01 0.01 93 1016.4
20260505150413 54 109 0.0 0.0 0.00 0.01 0.01 93 1016.4
20260505140524 54 112 0.0 0.0 0.00 0.01 0.01 93 1016.0
20260505140422 53 113 0.0 0.0 0.00 0.01 0.01 93 1016.0
20260505125028 53 113 0.0 0.0 0.00 0.01 0.01 93 1015.5
20260505124927 53 113 0.0 0.0 0.00 0.01 0.01 93 1015.6
20260505124525 53 113 0.0 0.0 0.00 0.01 0.01 93 1015.4
20260505124426 53 113 0.0 0.0 0.00 0.01 0.01 93 1015.4
20260505124025 53 222 0.0 0.0 0.00 0.01 0.01 93 1015.5
20260505123931 53 222 0.0 0.0 0.00 0.01 0.01 93 1015.5
20260505123528 53 222 0.0 0.0 0.00 0.01 0.01 93 1015.4
20260505123434 53 222 0.0 0.0 0.00 0.01 0.01 93 1015.5
20260505123030 53 222 0.0 0.0 0.00 0.01 0.01 93 1015.4
20260505122931 53 222 0.0 0.0 0.00 0.01 0.01 93 1015.5
20260505122529 53 222 0.0 0.0 0.00 0.01 0.01 93 1015.5
20260505122432 53 222 0.0 0.0 0.00 0.01 0.01 93 1015.5
20260505122031 53 149 0.0 0.0 0.00 0.01 0.01 93 1015.5
20260505121933 53 150 0.0 0.0 0.00 0.01 0.01 93 1015.5
20260505121533 53 301 0.0 0.0 0.00 0.01 0.01 93 1015.5
20260505121435 53 301 0.0 0.0 0.00 0.01 0.01 93 1015.4
20260505121032 53 255 0.0 0.0 0.00 0.01 0.01 93 1015.5
20260505120933 53 255 0.0 0.0 0.00 0.01 0.01 93 1015.5
20260505120533 53 255 0.0 0.0 0.00 0.01 0.01 93 1015.5
20260505120412 53 278 0.0 0.0 0.00 0.01 0.01 93 1015.5
20260505120016 53 301 0.0 0.0 0.00 0.02 0.01 93 1015.4
20260505115916 53 81 0.0 0.0 0.00 0.02 0.01 93 1015.4
20260505115517 53 360 0.0 0.0 0.00 0.02 0.01 93 1015.4
20260505115418 53 48 0.0 0.0 0.00 0.02 0.01 93 1015.4
20260505115015 53 108 0.0 0.0 0.00 0.02 0.01 93 1015.4
20260505114933 53 108 0.0 0.0 0.00 0.02 0.01 93 1015.4
20260505114529 53 290 0.0 0.0 0.00 0.02 0.01 93 1015.4
20260505114431 53 78 0.0 0.0 0.00 0.02 0.01 93 1015.4
20260505114028 53 276 0.0 0.0 0.00 0.02 0.01 93 1015.4
20260505113933 53 276 0.0 0.0 0.00 0.02 0.01 93 1015.4
20260505113529 53 260 0.0 0.0 0.00 0.02 0.01 93 1015.4
20260505113412 53 268 0.0 0.0 0.00 0.02 0.01 93 1015.4
20260505113030 53 321 0.0 0.0 0.00 0.02 0.01 93 1015.4
20260505112913 53 258 0.0 0.0 0.00 0.02 0.01 93 1015.4
20260505112525 53 258 0.0 0.0 0.00 0.02 0.01 93 1015.4
20260505112424 53 258 0.0 0.0 0.00 0.02 0.01 93 1015.4
20260505112023 53 46 0.0 0.0 0.00 0.02 0.01 93 1015.4
20260505111925 53 96 0.0 0.0 0.00 0.02 0.01 93 1015.4
20260505111523 53 266 0.0 0.0 0.00 0.02 0.01 93 1015.4
20260505111425 53 266 0.0 0.0 0.00 0.02 0.01 93 1015.4
20260505111022 53 74 0.0 0.0 0.00 0.02 0.01 93 1015.4
20260505110923 53 60 0.0 0.0 0.00 0.02 0.01 93 1015.4
20260505110521 53 82 0.0 0.0 0.00 0.02 0.01 93 1015.4
20260505110420 53 82 0.0 0.0 0.00 0.02 0.01 93 1015.4
20260505102021 53 297 0.0 0.0 0.00 0.02 0.01 93 1015.3
20260505101922 53 304 0.0 0.0 0.00 0.02 0.01 93 1015.3
20260505101522 53 75 0.0 0.0 0.00 0.02 0.01 93 1015.3
20260505101423 53 75 0.0 0.0 0.00 0.02 0.01 93 1015.3
20260505101024 53 79 0.0 0.0 0.00 0.02 0.01 93 1015.4
20260505100924 53 78 0.0 0.0 0.00 0.02 0.01 93 1015.3
20260505100521 53 345 0.0 0.0 0.00 0.02 0.01 93 1015.4
20260505100420 53 321 0.0 0.0 0.00 0.02 0.01 93 1015.4
20260505100018 53 5 0.0 0.0 0.00 0.02 0.01 93 1015.4
20260505095918 53 332 0.0 0.0 0.00 0.02 0.01 93 1015.3
20260505095515 53 58 0.0 0.0 0.00 0.02 0.01 93 1015.4
20260505095433 53 58 0.0 0.0 0.00 0.02 0.01 93 1015.4
20260505095028 53 58 0.0 0.0 0.01 0.02 0.01 93 1015.4
20260505094931 53 58 0.0 0.0 0.01 0.02 0.01 93 1015.4
20260505094527 53 58 0.0 0.0 0.01 0.02 0.01 93 1015.4
20260505094428 53 58 0.0 0.0 0.01 0.02 0.01 93 1015.3
20260505094028 53 77 0.0 0.0 0.01 0.02 0.01 93 1015.4
20260505093928 53 330 0.0 0.0 0.01 0.02 0.01 93 1015.3
20260505093525 53 283 0.0 0.0 0.01 0.02 0.01 93 1015.4
20260505093422 53 283 0.0 0.0 0.01 0.02 0.01 93 1015.3
20260505093016 53 311 0.0 0.0 0.01 0.02 0.01 93 1015.3
20260505092934 53 8 0.0 0.0 0.01 0.02 0.01 93 1015.4
20260505092530 53 289 0.0 0.0 0.01 0.02 0.01 93 1015.4
20260505092431 53 289 0.0 0.0 0.01 0.02 0.01 93 1015.3
20260505092029 53 289 0.0 0.0 0.01 0.02 0.01 93 1015.3
20260505091931 53 288 0.0 0.0 0.01 0.02 0.01 93 1015.4
20260505091529 53 319 0.0 0.0 0.01 0.02 0.01 93 1015.3
20260505091429 53 338 0.0 0.0 0.01 0.02 0.01 93 1015.3
20260505091025 53 295 0.0 0.0 0.01 0.02 0.01 93 1015.2
20260505090926 53 66 0.0 0.0 0.01 0.02 0.01 93 1015.2
20260505090527 53 8 0.0 0.0 0.01 0.02 0.01 93 1015.1
20260505090425 53 328 0.0 0.0 0.01 0.02 0.01 93 1015.2
20260505090028 53 293 0.0 0.0 0.01 0.02 0.01 93 1015.1
20260505085933 53 292 0.0 0.0 0.01 0.02 0.01 93 1015.1
20260505085527 53 319 0.0 0.0 0.01 0.02 0.01 93 1015.2
20260505085433 53 319 0.0 0.0 0.01 0.02 0.01 93 1015.2
20260505085026 53 92 0.0 0.0 0.00 0.01 0.00 93 1015.1
20260505084927 53 93 0.0 0.0 0.00 0.01 0.00 93 1015.0
20260505084526 53 3 0.0 0.0 0.00 0.01 0.00 93 1015.0
20260505084427 53 77 0.0 0.0 0.00 0.01 0.00 93 1015.0
20260505084024 53 315 0.0 0.0 0.00 0.01 0.00 93 1015.0
20260505083924 53 307 0.0 0.0 0.00 0.01 0.00 93 1014.9
20260505083524 53 295 0.0 0.0 0.00 0.01 0.00 93 1015.0
20260505083424 53 296 0.0 0.0 0.00 0.01 0.00 93 1015.0
20260505083020 53 58 0.0 0.0 0.00 0.01 0.00 93 1015.0
20260505082920 53 58 0.0 0.0 0.00 0.01 0.00 93 1015.0
20260505082519 53 93 0.0 0.0 0.00 0.01 0.00 93 1014.9
20260505082420 53 93 0.0 0.0 0.00 0.01 0.00 93 1014.9
20260505082015 53 188 0.0 0.0 0.00 0.01 0.00 93 1015.0
20260505081916 53 340 0.0 0.0 0.00 0.01 0.00 93 1015.0
20260505081515 53 11 0.0 0.0 0.00 0.01 0.00 93 1015.0
20260505081416 53 11 0.0 0.0 0.00 0.01 0.00 93 1015.0
20260505081014 53 250 0.0 0.0 0.00 0.01 0.00 93 1015.0
20260505080915 53 293 0.0 0.0 0.00 0.01 0.00 93 1015.0
20260505080518 53 307 0.0 0.0 0.00 0.01 0.00 92 1015.0
20260505080418 53 23 0.0 0.0 0.00 0.01 0.00 92 1015.0
20260505080021 53 90 0.0 0.0 0.00 0.02 0.00 92 1015.1
20260505075927 53 105 0.0 0.0 0.00 0.02 0.00 92 1015.1
20260505075518 53 37 0.0 0.0 0.00 0.02 0.00 92 1015.1
20260505075422 53 56 0.0 0.0 0.00 0.02 0.00 92 1015.1
20260505075016 53 346 0.0 0.0 0.00 0.02 0.00 92 1015.0
20260505074916 53 74 0.0 0.0 0.00 0.02 0.00 92 1015.1
20260505074515 53 351 0.0 0.0 0.00 0.02 0.00 92 1015.1
20260505074416 53 86 0.0 0.0 0.00 0.02 0.00 92 1015.1
20260505074016 53 116 0.0 0.0 0.00 0.02 0.00 92 1015.1
20260505073918 53 71 0.0 0.0 0.00 0.02 0.00 92 1015.0
20260505073518 53 4 0.0 0.0 0.00 0.02 0.00 92 1015.0
20260505073417 53 20 0.0 0.0 0.00 0.02 0.00 92 1015.1
20260505073014 53 73 0.0 0.0 0.00 0.02 0.00 92 1015.0
20260505072915 53 251 0.0 0.0 0.00 0.02 0.00 92 1015.1
20260505072517 53 107 0.0 0.0 0.00 0.02 0.00 92 1015.1
20260505072417 53 98 0.0 0.0 0.00 0.02 0.00 92 1015.1
20260505072020 53 86 0.0 0.0 0.00 0.02 0.00 92 1015.1
20260505071921 53 86 0.0 0.0 0.00 0.02 0.00 92 1015.1
20260505071518 53 205 0.0 0.0 0.00 0.02 0.00 92 1015.1
20260505071419 53 202 0.0 0.0 0.00 0.02 0.00 92 1015.0
20260505071018 53 105 0.0 0.0 0.00 0.02 0.00 92 1015.0
20260505070919 53 106 0.0 0.0 0.00 0.02 0.00 92 1015.0
20260505070515 53 244 0.0 0.0 0.00 0.02 0.00 92 1015.0
20260505070421 53 331 0.0 0.0 0.00 0.02 0.00 92 1015.0
20260505070026 53 332 0.0 0.0 0.00 0.02 0.02 92 1015.1
20260505065920 53 299 0.0 0.0 0.00 0.02 0.02 92 1015.1
20260505065522 53 278 0.0 0.0 0.00 0.02 0.02 92 1015.2
20260505065425 53 71 0.0 0.0 0.00 0.02 0.02 92 1015.2
20260505065023 53 329 0.0 0.0 0.00 0.02 0.02 92 1015.1
20260505064923 53 328 0.0 0.0 0.00 0.02 0.02 92 1015.2
20260505064524 53 299 0.0 0.0 0.00 0.02 0.02 92 1015.1
20260505064424 53 72 0.0 0.0 0.00 0.02 0.02 92 1015.2
20260505064024 53 107 0.0 0.0 0.00 0.02 0.02 92 1015.2
20260505063925 53 75 0.0 0.0 0.00 0.02 0.02 92 1015.2
20260505063526 53 70 0.0 0.0 0.00 0.02 0.02 92 1015.2
20260505063427 53 70 0.0 0.0 0.00 0.02 0.02 92 1015.3
20260505063027 53 60 0.0 0.0 0.00 0.02 0.02 92 1015.1
20260505062928 53 68 0.0 0.0 0.00 0.02 0.02 92 1015.2
20260505062527 53 75 0.0 0.0 0.00 0.02 0.02 92 1015.2
20260505062430 53 90 0.0 0.0 0.00 0.02 0.02 92 1015.3
20260505062030 53 356 0.0 0.0 0.00 0.02 0.02 91 1015.2
20260505061932 53 290 0.0 0.0 0.00 0.02 0.02 91 1015.2
20260505061527 53 273 0.0 0.0 0.00 0.02 0.02 91 1015.3
20260505061432 53 273 0.0 0.0 0.00 0.02 0.02 91 1015.3
20260505061028 53 11 0.0 0.0 0.00 0.02 0.02 91 1015.3
20260505060934 53 11 0.0 0.0 0.00 0.02 0.02 91 1015.3
20260505060530 53 358 0.0 0.0 0.00 0.02 0.02 91 1015.2
20260505060414 53 90 0.0 0.0 0.00 0.02 0.02 91 1015.3
20260505060021 53 77 0.0 0.0 0.00 0.02 0.02 91 1015.3
20260505055922 53 72 0.0 0.0 0.00 0.02 0.02 91 1015.3
20260505055521 53 67 0.0 0.0 0.00 0.02 0.02 91 1015.3
20260505055422 53 15 0.0 0.0 0.00 0.02 0.02 91 1015.2
20260505055022 53 9 0.0 0.0 0.00 0.02 0.02 91 1015.2
20260505054924 53 5 0.0 0.0 0.00 0.02 0.02 91 1015.2
20260505054522 53 77 0.0 0.0 0.00 0.02 0.02 91 1015.1
20260505054424 53 77 0.0 0.0 0.00 0.02 0.02 91 1015.1
20260505054027 53 24 0.0 0.0 0.00 0.02 0.02 91 1015.3
20260505053927 54 46 0.0 0.0 0.00 0.02 0.02 91 1015.2
20260505053529 54 40 0.0 0.0 0.00 0.02 0.02 91 1015.3
20260505053430 54 96 0.0 0.0 0.00 0.02 0.02 90 1015.3
20260505053029 54 73 0.0 0.0 0.00 0.02 0.02 90 1015.3
20260505052931 54 276 0.0 0.0 0.00 0.02 0.02 90 1015.3
20260505052532 54 50 0.0 0.0 0.00 0.02 0.02 90 1015.4
20260505052414 54 327 0.0 0.0 0.00 0.02 0.02 90 1015.4
20260505052014 54 75 0.0 0.0 0.00 0.02 0.02 90 1015.4
20260505051934 54 75 0.0 0.0 0.00 0.02 0.02 90 1015.4
20260505051533 54 103 0.0 0.0 0.00 0.02 0.02 90 1015.4
20260505051415 54 75 0.0 0.0 0.00 0.02 0.02 90 1015.4
20260505051015 54 27 0.0 0.0 0.00 0.02 0.02 90 1015.5
20260505050916 54 27 0.0 0.0 0.00 0.02 0.02 90 1015.4
20260505050534 54 84 0.0 0.0 0.00 0.02 0.02 90 1015.4
20260505050419 54 79 0.0 0.0 0.00 0.02 0.02 89 1015.4
20260505041514 55 287 0.0 0.0 0.00 0.02 0.02 88 1014.9
20260505041415 54 358 0.0 0.0 0.00 0.02 0.02 88 1014.9
20260505041014 54 63 0.0 0.0 0.00 0.02 0.02 88 1014.8
20260505040916 55 302 0.0 0.0 0.00 0.02 0.02 88 1014.8
20260505040515 55 68 0.0 0.0 0.00 0.02 0.02 88 1014.8
20260505040414 55 226 0.0 0.0 0.00 0.02 0.02 88 1014.7
20260505040015 55 309 0.0 0.0 0.00 0.02 0.02 88 1014.8
20260505035916 55 4 0.0 0.0 0.00 0.02 0.02 88 1014.7
20260505035515 55 41 0.0 0.0 0.00 0.02 0.02 88 1014.7
20260505035417 55 39 0.0 0.0 0.00 0.02 0.02 88 1014.7